Content
SEND FEEDBACK

Daily
Averages
Monthly
Summary
United States of America

ST. LOUIS, MISSOURI


Home > North America > United States > Missouri
Elevation: 535 feet     Latitude: 38 45N     Longitude: 090 22W

WEATHER
 
SELECT A DAY
Number of Records: 201,199;   Date Range: 1/1/95 - 12/17/14
 
SHARE

PRINT THIS DATA

[ ← Previous Day ]
WEATHER ALMANAC - JULY 13, 2014
[ Next Day → ]
[ °C ]   °F
Weather ElementAverageHighLow
Temperature80.9 °F88 °F (2:54 pm)75 °F (5:54 pm)
Dewpoint70.8 °F73.4 °F (3:54 am)68 °F (12:30 am)
Humidity72.7 %94 % (12:30 am)51 % (5:54 pm)
Barometer29.93 in29.97 in (7:01 pm)29.89 in (12:54 pm)
Wind Speed5.1 mph10.4 mph (12:54 pm)
Weather ElementAverage
Visibility9.5 mi
Wind DirectionS (180.8 °)

Weather ElementTotal
Precipitation0.13 in
Cooling Degree Days16.5 (Base 65)
Growing Degree Days31.5 (Base 50)
Averaged from 24 records on July 13, 2014
WEATHER CONDITIONS BREAKOUT
WIND DIRECTION BREAKOUT
WEATHER BY HOUR - JULY 13, 2014
[ °C ]   °F
Local TimeTemperatureDewpointHumidityBarometerVisibilityWind DirectionWind SpeedGust SpeedPrecipitationEventsConditions
12:54 AM82.0 °F69.1 °F65 %29.94 in10.0 miSSW (210°)8.1 mphClear
1:54 AM80.1 °F69.1 °F69 %29.94 in10.0 miSW (230°)6.9 mphClear
2:54 AM79.0 °F70.0 °F74 %29.93 in10.0 miSW (220°)8.1 mphClear
3:54 AM79.0 °F70.0 °F74 %29.92 in10.0 miSW (220°)10.4 mphClear
4:54 AM79.0 °F69.1 °F72 %29.93 in10.0 miSW (220°)9.2 mphClear
5:54 AM77.0 °F70.0 °F79 %29.97 in10.0 miVariable4.6 mphMostly Cloudy
6:54 AM78.1 °F70.0 °F76 %29.97 in10.0 miSW (220°)3.5 mphMostly Cloudy
7:54 AM80.1 °F71.1 °F74 %29.97 in10.0 miSSW (210°)4.6 mphMostly Cloudy
8:54 AM81.0 °F70.0 °F69 %29.96 in10.0 miWest (270°)4.6 mphMostly Cloudy
9:54 AM82.0 °F71.1 °F69 %29.96 in10.0 miSW (220°)6.9 mphMostly Cloudy
10:54 AM84.9 °F70.0 °F61 %29.95 in10.0 miWest (270°)8.1 mphMostly Cloudy
11:54 AM87.1 °F70.0 °F57 %29.95 in10.0 miWest (280°)9.2 mphMostly Cloudy
12:54 PM88.0 °F68.0 °F51 %29.96 in10.0 miWest (270°)8.1 mphMostly Cloudy
1:54 PM88.0 °F69.1 °F53 %29.94 in10.0 miWest (280°)5.8 mphMostly Cloudy
2:54 PM88.0 °F70.0 °F55 %29.93 in10.0 miWSW (250°)6.9 mphMostly Cloudy
3:54 PM87.1 °F72.0 °F61 %29.91 in10.0 miSW (230°)4.6 mphMostly Cloudy
4:54 PM86.0 °F72.0 °F63 %29.91 in10.0 miSSW (210°)4.6 mphMostly Cloudy
6:54 PM82.6 °F71.1 °F68 %29.91 in8.0 miWNW (300°)3.5 mph0.04 inRainLight Rain
7:54 PM77.0 °F73.0 °F88 %29.90 in10.0 miCalmMostly Cloudy
8:54 PM75.9 °F73.0 °F91 %29.91 in4.0 miCalm0.08 inOvercast
9:54 PM75.0 °F73.0 °F94 %29.89 in6.0 miCalm0.00 inScattered Clouds
10:54 PM75.0 °F73.0 °F94 %29.92 in10.0 miSW (230°)4.6 mph0.01 inRain-ThunderstormLight Rain
11:14 PM75.2 °F73.4 °F94 %29.93 in10.0 miCalm0.00 inRainLight Rain
11:54 PM75.0 °F73.0 °F94 %29.91 in10.0 miCalm0.00 inMostly Cloudy
Hourly data recorded from KSUS, located miles away from St. Louis, Missouri







STORIES FROM OUR PARTNERS